Time,TemperatureF,DewpointF,PressureIn,WindDirection,WindDirectionDegrees,WindSpeedMPH,WindSpeedGustMPH,Humidity,HourlyPrecipIn,Conditions,Clouds,dailyrainin,SoftwareType,DateUTC
2013-03-07 00:00:00,36.1,29.0,30.02,NNW,333,3.0,10.0,75,0.00,,,0.06,weatherlink.com 1.10,2013-03-07 05:00:00,
2013-03-07 00:15:00,35.8,29.0,30.02,NW,309,2.0,9.0,76,0.00,,,0.00,weatherlink.com 1.10,2013-03-07 05:15:00,
2013-03-07 00:30:00,35.5,29.0,30.02,NNW,329,3.0,6.0,76,0.00,,,0.00,weatherlink.com 1.10,2013-03-07 05:30:00,
2013-03-07 00:45:00,35.2,29.0,30.02,NW,315,4.0,10.0,77,0.00,,,0.00,weatherlink.com 1.10,2013-03-07 05:45:00,
2013-03-07 01:00:00,35.0,29.0,30.03,NNW,329,4.0,8.0,78,0.00,,,0.00,weatherlink.com 1.10,2013-03-07 06:00:00,
2013-03-07 01:15:00,35.0,29.0,30.03,NW,309,4.0,12.0,78,0.00,,,0.00,weatherlink.com 1.10,2013-03-07 06:15:00,
2013-03-07 01:30:00,35.2,29.0,30.03,NW,319,2.0,8.0,78,0.00,,,0.00,weatherlink.com 1.10,2013-03-07 06:30:00,
2013-03-07 01:45:00,35.4,29.0,30.04,NW,311,4.0,10.0,78,0.00,,,0.00,weatherlink.com 1.10,2013-03-07 06:45:00,
2013-03-07 02:00:00,35.8,30.0,30.04,NW,317,4.0,10.0,78,0.00,,,0.00,weatherlink.com 1.10,2013-03-07 07:00:00,
2013-03-07 02:15:00,36.1,30.0,30.05,NW,321,6.0,8.0,78,0.00,,,0.00,weatherlink.com 1.10,2013-03-07 07:15:00,
2013-03-07 02:30:00,36.7,30.0,30.05,NW,305,2.0,8.0,76,0.00,,,0.00,weatherlink.com 1.10,2013-03-07 07:30:00,
2013-03-07 02:45:00,37.2,30.0,30.04,WNW,290,3.0,10.0,75,0.00,,,0.00,weatherlink.com 1.10,2013-03-07 07:45:00,
2013-03-07 03:00:00,37.4,30.0,30.04,WNW,292,6.0,6.0,75,0.00,,,0.00,weatherlink.com 1.10,2013-03-07 08:00:00,
2013-03-07 03:15:00,37.6,30.0,30.04,NW,315,3.0,9.0,74,0.00,,,0.00,weatherlink.com 1.10,2013-03-07 08:15:00,
2013-03-07 03:30:00,37.4,29.0,30.04,WNW,295,3.0,9.0,73,0.00,,,0.00,weatherlink.com 1.10,2013-03-07 08:30:00,
2013-03-07 03:45:00,37.0,29.0,30.03,NW,304,2.0,7.0,73,0.00,,,0.00,weatherlink.com 1.10,2013-03-07 08:45:00,
2013-03-07 04:00:00,36.4,29.0,30.03,North,355,3.0,7.0,74,0.00,,,0.00,weatherlink.com 1.10,2013-03-07 09:00:00,
2013-03-07 04:15:00,35.6,29.0,30.05,WNW,300,4.0,6.0,76,0.00,,,0.00,weatherlink.com 1.10,2013-03-07 09:15:00,
2013-03-07 04:30:00,35.0,28.0,30.05,NNW,328,4.0,7.0,77,0.00,,,0.00,weatherlink.com 1.10,2013-03-07 09:30:00,
2013-03-07 04:45:00,34.5,28.0,30.06,WNW,298,5.0,8.0,78,0.00,,,0.00,weatherlink.com 1.10,2013-03-07 09:45:00,
2013-03-07 05:00:00,34.3,28.0,30.06,North,355,4.0,7.0,78,0.00,,,0.00,weatherlink.com 1.10,2013-03-07 10:00:00,
2013-03-07 05:16:00,34.1,28.0,30.06,NW,308,3.0,6.0,79,0.00,,,0.00,weatherlink.com 1.10,2013-03-07 10:16:00,
2013-03-07 05:31:00,33.8,28.0,30.07,WNW,301,4.0,6.0,79,0.00,,,0.00,weatherlink.com 1.10,2013-03-07 10:31:00,
2013-03-07 05:46:00,33.5,28.0,30.08,WNW,289,0.0,5.0,80,0.00,,,0.00,weatherlink.com 1.10,2013-03-07 10:46:00,
2013-03-07 06:01:00,33.1,28.0,30.09,WNW,282,4.0,5.0,81,0.00,,,0.00,weatherlink.com 1.10,2013-03-07 11:01:00,
2013-03-07 06:16:00,32.8,28.0,30.10,West,264,1.0,6.0,82,0.00,,,0.00,weatherlink.com 1.10,2013-03-07 11:16:00,
2013-03-07 06:31:00,32.5,28.0,30.10,WNW,295,1.0,5.0,82,0.00,,,0.00,weatherlink.com 1.10,2013-03-07 11:31:00,
2013-03-07 06:46:00,32.4,28.0,30.11,NW,322,2.0,7.0,83,0.00,,,0.00,weatherlink.com 1.10,2013-03-07 11:46:00,
2013-03-07 07:01:00,32.3,28.0,30.12,NW,319,2.0,6.0,84,0.00,,,0.00,weatherlink.com 1.10,2013-03-07 12:01:00,
2013-03-07 07:16:00,32.5,28.0,30.12,WNW,302,3.0,8.0,84,0.00,,,0.00,weatherlink.com 1.10,2013-03-07 12:16:00,
2013-03-07 07:31:00,33.2,29.0,30.13,WNW,302,4.0,7.0,83,0.00,,,0.00,weatherlink.com 1.10,2013-03-07 12:31:00,
2013-03-07 07:46:00,34.4,29.0,30.14,WNW,302,4.0,9.0,82,0.00,,,0.00,weatherlink.com 1.10,2013-03-07 12:46:00,
2013-03-07 08:01:00,36.7,30.0,30.15,WNW,289,5.0,9.0,78,0.00,,,0.00,weatherlink.com 1.10,2013-03-07 13:01:00,
2013-03-07 08:16:00,38.2,31.0,30.15,NW,314,3.0,10.0,74,0.00,,,0.00,weatherlink.com 1.10,2013-03-07 13:16:00,
2013-03-07 08:31:00,39.2,31.0,30.15,WNW,302,6.0,13.0,71,0.00,,,0.00,weatherlink.com 1.10,2013-03-07 13:31:00,
2013-03-07 08:46:00,40.2,31.0,30.15,NNW,341,4.0,9.0,70,0.00,,,0.00,weatherlink.com 1.10,2013-03-07 13:46:00,
2013-03-07 09:01:00,41.4,31.0,30.15,NNW,327,3.0,16.0,66,0.00,,,0.00,weatherlink.com 1.10,2013-03-07 14:01:00,
2013-03-07 09:16:00,42.2,31.0,30.15,WNW,297,6.0,14.0,64,0.00,,,0.00,weatherlink.com 1.10,2013-03-07 14:16:00,
2013-03-07 09:31:00,42.6,31.0,30.16,North,355,3.0,11.0,64,0.00,,,0.00,weatherlink.com 1.10,2013-03-07 14:31:00,
2013-03-07 09:46:00,43.0,31.0,30.16,NW,309,7.0,10.0,62,0.00,,,0.00,weatherlink.com 1.10,2013-03-07 14:46:00,
2013-03-07 10:01:00,44.1,31.0,30.16,NW,323,4.0,15.0,61,0.00,,,0.00,weatherlink.com 1.10,2013-03-07 15:01:00,
2013-03-07 10:16:00,43.7,30.0,30.16,North,360,2.0,16.0,60,0.00,,,0.00,weatherlink.com 1.10,2013-03-07 15:16:00,
2013-03-07 10:31:00,44.8,31.0,30.16,North,355,7.0,12.0,58,0.00,,,0.00,weatherlink.com 1.10,2013-03-07 15:31:00,
2013-03-07 10:46:00,46.5,31.0,30.15,WNW,300,4.0,14.0,56,0.00,,,0.00,weatherlink.com 1.10,2013-03-07 15:46:00,
2013-03-07 11:01:00,45.1,31.0,30.15,WNW,294,2.0,12.0,59,0.00,,,0.00,weatherlink.com 1.10,2013-03-07 16:01:00,
2013-03-07 11:16:00,45.6,31.0,30.15,NNW,331,1.0,12.0,56,0.00,,,0.00,weatherlink.com 1.10,2013-03-07 16:16:00,
2013-03-07 11:32:00,46.0,31.0,30.15,North,5,11.0,12.0,56,0.00,,,0.00,weatherlink.com 1.10,2013-03-07 16:32:00,
2013-03-07 11:47:00,47.0,31.0,30.15,NW,321,3.0,14.0,54,0.00,,,0.00,weatherlink.com 1.10,2013-03-07 16:47:00,
2013-03-07 12:02:00,46.3,32.0,30.15,NNW,331,3.0,15.0,57,0.00,,,0.00,weatherlink.com 1.10,2013-03-07 17:02:00,
2013-03-07 12:17:00,47.0,31.0,30.14,NNW,344,4.0,19.0,54,0.00,,,0.00,weatherlink.com 1.10,2013-03-07 17:17:00,
2013-03-07 12:32:00,47.7,32.0,30.14,NW,325,10.0,15.0,55,0.00,,,0.00,weatherlink.com 1.10,2013-03-07 17:32:00,
2013-03-07 12:47:00,48.4,31.0,30.13,WNW,298,4.0,12.0,52,0.00,,,0.00,weatherlink.com 1.10,2013-03-07 17:47:00,
2013-03-07 13:02:00,48.5,31.0,30.12,NW,308,8.0,16.0,52,0.00,,,0.00,weatherlink.com 1.10,2013-03-07 18:02:00,
2013-03-07 13:17:00,49.1,32.0,30.12,NW,325,3.0,11.0,52,0.00,,,0.00,weatherlink.com 1.10,2013-03-07 18:17:00,
2013-03-07 13:32:00,48.0,31.0,30.11,North,350,4.0,12.0,53,0.00,,,0.00,weatherlink.com 1.10,2013-03-07 18:32:00,
2013-03-07 13:47:00,48.0,31.0,30.11,NW,319,6.0,11.0,52,0.00,,,0.00,weatherlink.com 1.10,2013-03-07 18:47:00,
2013-03-07 14:02:00,47.8,30.0,30.11,NNW,344,3.0,11.0,51,0.00,,,0.00,weatherlink.com 1.10,2013-03-07 19:02:00,
2013-03-07 14:17:00,48.8,30.0,30.10,NNW,328,3.0,12.0,49,0.00,,,0.00,weatherlink.com 1.10,2013-03-07 19:17:00,
2013-03-07 14:32:00,50.1,31.0,30.10,NW,322,5.0,13.0,48,0.00,,,0.00,weatherlink.com 1.10,2013-03-07 19:32:00,
2013-03-07 14:47:00,49.0,30.0,30.10,WNW,301,3.0,10.0,49,0.00,,,0.00,weatherlink.com 1.10,2013-03-07 19:47:00,
2013-03-07 15:02:00,48.9,31.0,30.11,North,355,6.0,11.0,50,0.00,,,0.00,weatherlink.com 1.10,2013-03-07 20:02:00,
2013-03-07 15:17:00,48.6,32.0,30.11,NW,304,6.0,14.0,53,0.00,,,0.00,weatherlink.com 1.10,2013-03-07 20:17:00,
2013-03-07 15:32:00,49.4,30.0,30.11,NNW,331,13.0,14.0,47,0.00,,,0.00,weatherlink.com 1.10,2013-03-07 20:32:00,
2013-03-07 15:47:00,48.0,30.0,30.11,NW,325,4.0,12.0,51,0.00,,,0.00,weatherlink.com 1.10,2013-03-07 20:47:00,
2013-03-07 16:02:00,47.0,30.0,30.11,NW,309,4.0,12.0,53,0.00,,,0.00,weatherlink.com 1.10,2013-03-07 21:02:00,
2013-03-07 16:17:00,47.5,30.0,30.12,NNW,342,8.0,14.0,52,0.00,,,0.00,weatherlink.com 1.10,2013-03-07 21:17:00,
2013-03-07 16:32:00,46.4,30.0,30.12,NW,324,6.0,15.0,54,0.00,,,0.00,weatherlink.com 1.10,2013-03-07 21:32:00,
2013-03-07 17:02:00,45.4,29.0,30.13,NNW,327,3.0,11.0,54,0.00,,,0.00,weatherlink.com 1.10,2013-03-07 22:02:00,
2013-03-07 17:17:00,45.0,29.0,30.13,NW,325,3.0,11.0,53,0.00,,,0.00,weatherlink.com 1.10,2013-03-07 22:17:00,
2013-03-07 17:32:00,45.0,29.0,30.14,NNW,346,7.0,12.0,54,0.00,,,0.00,weatherlink.com 1.10,2013-03-07 22:32:00,
2013-03-07 17:47:00,44.7,28.0,30.14,North,355,2.0,9.0,53,0.00,,,0.00,weatherlink.com 1.10,2013-03-07 22:47:00,
2013-03-07 18:02:00,43.8,28.0,30.15,North,5,5.0,11.0,55,0.00,,,0.00,weatherlink.com 1.10,2013-03-07 23:02:00,
2013-03-07 18:17:00,42.6,28.0,30.15,NNW,333,3.0,12.0,56,0.00,,,0.00,weatherlink.com 1.10,2013-03-07 23:17:00,
2013-03-07 18:32:00,41.6,28.0,30.16,North,5,2.0,8.0,58,0.00,,,0.00,weatherlink.com 1.10,2013-03-07 23:32:00,
2013-03-07 18:47:00,41.0,27.0,30.17,NW,325,2.0,11.0,58,0.00,,,0.00,weatherlink.com 1.10,2013-03-07 23:47:00,
2013-03-07 19:02:00,40.2,27.0,30.18,NNW,338,4.0,8.0,60,0.00,,,0.00,weatherlink.com 1.10,2013-03-08 00:02:00,
2013-03-07 19:17:00,39.6,27.0,30.19,NNW,329,2.0,9.0,61,0.00,,,0.00,weatherlink.com 1.10,2013-03-08 00:17:00,
2013-03-07 19:32:00,39.2,27.0,30.19,WNW,297,3.0,8.0,62,0.00,,,0.00,weatherlink.com 1.10,2013-03-08 00:32:00,
2013-03-07 19:47:00,38.4,27.0,30.19,NNW,342,2.0,9.0,64,0.00,,,0.00,weatherlink.com 1.10,2013-03-08 00:47:00,
2013-03-07 20:02:00,38.4,27.0,30.20,NNW,338,2.0,8.0,64,0.00,,,0.00,weatherlink.com 1.10,2013-03-08 01:02:00,
2013-03-07 20:17:00,38.0,27.0,30.20,NW,324,6.0,11.0,64,0.00,,,0.00,weatherlink.com 1.10,2013-03-08 01:17:00,
2013-03-07 20:32:00,38.0,27.0,30.20,NW,311,6.0,8.0,64,0.00,,,0.00,weatherlink.com 1.10,2013-03-08 01:32:00,
2013-03-07 20:47:00,37.9,26.0,30.21,NW,315,5.0,9.0,63,0.00,,,0.00,weatherlink.com 1.10,2013-03-08 01:47:00,
2013-03-07 21:02:00,37.6,26.0,30.21,NNW,340,6.0,12.0,63,0.00,,,0.00,weatherlink.com 1.10,2013-03-08 02:02:00,
2013-03-07 21:17:00,37.3,26.0,30.22,NNW,331,2.0,8.0,63,0.00,,,0.00,weatherlink.com 1.10,2013-03-08 02:17:00,
2013-03-07 21:34:00,36.9,26.0,30.22,NW,313,4.0,8.0,64,0.00,,,0.00,weatherlink.com 1.10,2013-03-08 02:34:00,
2013-03-07 21:47:00,36.9,26.0,30.21,NW,312,2.0,10.0,64,0.00,,,0.00,weatherlink.com 1.10,2013-03-08 02:47:00,
2013-03-07 22:02:00,36.7,25.0,30.21,NW,305,3.0,6.0,64,0.00,,,0.00,weatherlink.com 1.10,2013-03-08 03:02:00,
2013-03-07 22:17:00,36.5,26.0,30.21,NW,323,3.0,7.0,65,0.00,,,0.00,weatherlink.com 1.10,2013-03-08 03:17:00,
2013-03-07 22:33:00,36.2,25.0,30.22,NNW,348,2.0,5.0,65,0.00,,,0.00,weatherlink.com 1.10,2013-03-08 03:33:00,
2013-03-07 22:47:00,35.7,25.0,30.22,NW,306,2.0,6.0,66,0.00,,,0.00,weatherlink.com 1.10,2013-03-08 03:47:00,
2013-03-07 23:02:00,35.4,25.0,30.22,NW,316,3.0,7.0,67,0.00,,,0.00,weatherlink.com 1.10,2013-03-08 04:02:00,
2013-03-07 23:17:00,35.1,25.0,30.22,WNW,303,3.0,5.0,68,0.00,,,0.00,weatherlink.com 1.10,2013-03-08 04:17:00,
2013-03-07 23:32:00,34.7,25.0,30.22,WNW,298,3.0,7.0,69,0.00,,,0.00,weatherlink.com 1.10,2013-03-08 04:32:00,
2013-03-07 23:47:00,34.4,25.0,30.22,West,275,5.0,6.0,69,0.00,,,0.00,weatherlink.com 1.10,2013-03-08 04:47:00,